Weather History for KAXA - April, 2013

Change the Weather History Date:

Wednesday, April 24, 2013

  Actual Average Record
Temperature  
Mean Temperature 40 °F -  
Max Temperature 53 °F 60 °F 82 °F (2012)
Min Temperature 26 °F 40 °F 26 °F (2013)
Degree Days  
Heating Degree Days 26    
Moisture  
Dew Point 30 °F    
Average Humidity 75    
Maximum Humidity 100    
Minimum Humidity 44    
Precipitation  
Precipitation 0.01 in - - ()
Sea Level Pressure  
Sea Level Pressure 30.05 in    
Wind  
Wind Speed 12 mph (West)    
Max Wind Speed 34 mph    
Max Gust Speed 54 mph    
Visibility 10 miles    
Events Rain    
Averages and records for this station are not official NWS values.
T = Trace of Precipitation, MM = Missing Value Source: NWS Daily Summary

Daily Weather History Graph

Daily Weather History Graph

Search for Another Location

Airport or City:

Trip Planner

Search our weather history database for the weather conditions in past years. The results will help you decide how hot, cold, wet, or windy it might be!

Date:

Astronomy

Apr. 24, 2013 Rise Set
Actual Time 6:20 AM CDT 8:10 PM CDT
Civil Twilight 5:50 AM CDT 8:41 PM CDT
Nautical Twilight 5:13 AM CDT 9:18 PM CDT
Astronomical Twilight 4:33 AM CDT 9:58 PM CDT
Moon 7:13 PM CDT (4/24) 5:26 AM CDT (4/24)
Length of Visible Light 14h 50m
Length of Day
13h 50m
Waxing Gibbous, 98% of the Moon is Illuminated
Apr 24
Waxing Gibbous
Apr 25
Full
May 2
Last Quarter
May 9
New
May 17
First Quarter

Hourly Weather History & Observations

Time (CDT) Temp. Windchill Dew Point Humidity Pressure Visibility Wind Dir Wind Speed Gust Speed Precip Events Conditions
12:15 AM 30.2 °F 22.6 °F 24.8 °F 80% 30.10 in 10.0 mi NW 8.1 mph - N/A   Clear
12:35 AM 30.2 °F 23.4 °F 24.8 °F 80% 30.11 in 10.0 mi WNW 6.9 mph - N/A   Clear
12:55 AM 28.4 °F 22.2 °F 24.8 °F 86% 30.11 in 10.0 mi WNW 5.8 mph - N/A   Clear
1:15 AM 28.4 °F 21.2 °F 24.8 °F 86% 30.11 in 10.0 mi West 6.9 mph - N/A   Clear
1:35 AM 28.4 °F 19.7 °F 24.8 °F 86% 30.11 in 10.0 mi West 9.2 mph - N/A   Clear
1:55 AM 28.4 °F 20.4 °F 24.8 °F 86% 30.11 in 10.0 mi West 8.1 mph - N/A   Clear
2:15 AM 28.4 °F 20.4 °F 24.8 °F 86% 30.11 in 10.0 mi West 8.1 mph - N/A   Clear
2:35 AM 26.6 °F 18.2 °F 24.8 °F 93% 30.10 in 10.0 mi West 8.1 mph - N/A   Clear
2:55 AM 26.6 °F 17.5 °F 24.8 °F 93% 30.09 in 10.0 mi West 9.2 mph - N/A   Clear
3:15 AM 28.4 °F 20.4 °F 24.8 °F 86% 30.09 in 10.0 mi WSW 8.1 mph - N/A   Clear
3:35 AM 28.4 °F 20.4 °F 24.8 °F 86% 30.09 in 10.0 mi WSW 8.1 mph - N/A   Clear
3:55 AM 26.6 °F 18.2 °F 24.8 °F 93% 30.09 in 10.0 mi WSW 8.1 mph - N/A   Clear
4:15 AM 26.6 °F 19.1 °F 26.6 °F 100% 30.08 in 10.0 mi WSW 6.9 mph - N/A   Clear
4:35 AM 26.6 °F 21.2 °F 24.8 °F 93% 30.08 in 10.0 mi WSW 4.6 mph - N/A   Clear
5:15 AM 26.6 °F 18.2 °F 24.8 °F 93% 30.07 in 10.0 mi WSW 8.1 mph - N/A   Clear
5:35 AM 26.6 °F 18.2 °F 24.8 °F 93% 30.07 in 10.0 mi WSW 8.1 mph - N/A   Clear
5:55 AM 26.6 °F 18.2 °F 24.8 °F 93% 30.07 in 10.0 mi WSW 8.1 mph - N/A   Clear
6:15 AM 26.6 °F 18.2 °F 24.8 °F 93% 30.06 in 10.0 mi WSW 8.1 mph - N/A   Clear
6:35 AM 28.4 °F 19.7 °F 24.8 °F 86% 30.07 in 10.0 mi WSW 9.2 mph - N/A   Clear
6:55 AM 28.4 °F 20.4 °F 26.6 °F 93% 30.07 in 9.0 mi WSW 8.1 mph - N/A   Clear
7:15 AM 28.4 °F 20.4 °F 26.6 °F 93% 30.07 in 10.0 mi WSW 8.1 mph - N/A   Clear
7:35 AM 30.2 °F 22.6 °F 26.6 °F 86% 30.08 in 10.0 mi West 8.1 mph - N/A   Clear
7:55 AM 32.0 °F 24.2 °F 26.6 °F 80% 30.08 in 10.0 mi West 9.2 mph - N/A   Clear
8:15 AM 32.0 °F 24.8 °F 28.4 °F 87% 30.08 in 10.0 mi West 8.1 mph - N/A   Clear
8:35 AM 33.8 °F 27.0 °F 28.4 °F 81% 30.08 in 10.0 mi WSW 8.1 mph - N/A   Clear
8:55 AM 33.8 °F 25.8 °F 28.4 °F 81% 30.09 in 10.0 mi WSW 10.4 mph - N/A   Clear
9:15 AM 35.6 °F 28.6 °F 28.4 °F 75% 30.08 in 10.0 mi West 9.2 mph - N/A   Clear
9:35 AM 37.4 °F 31.4 °F 28.4 °F 70% 30.08 in 10.0 mi WSW 8.1 mph - N/A   Clear
9:55 AM 39.2 °F 32.5 °F 30.2 °F 70% 30.08 in 10.0 mi WSW 10.4 mph - N/A   Clear
10:15 AM 39.2 °F 33.6 °F 30.2 °F 70% 30.08 in 10.0 mi WSW 8.1 mph - N/A   Clear
10:35 AM 41.0 °F 34.3 °F 32.0 °F 70% 30.08 in 10.0 mi West 11.5 mph - N/A   Clear
10:55 AM 41.0 °F 33.1 °F 30.2 °F 65% 30.08 in 10.0 mi West 15.0 mph - N/A   Clear
11:15 AM 42.8 °F 35.8 °F 30.2 °F 61% 30.07 in 10.0 mi WSW 13.8 mph - N/A   Clear
11:35 AM 42.8 °F 35.8 °F 32.0 °F 66% 30.06 in 10.0 mi WSW 13.8 mph - N/A   Clear
11:55 AM 44.6 °F 37.2 °F 32.0 °F 61% 30.06 in 10.0 mi WSW 17.3 mph - N/A   Clear
12:15 PM 44.6 °F 36.9 °F 30.2 °F 57% 30.06 in 10.0 mi WSW 18.4 mph - N/A   Clear
12:35 PM 46.4 °F 39.2 °F 30.2 °F 53% 30.05 in 10.0 mi SW 18.4 mph - N/A   Clear
12:55 PM 46.4 °F 38.7 °F 32.0 °F 57% 30.05 in 10.0 mi SW 20.7 mph 28.8 mph N/A   Partly Cloudy
1:15 PM 46.4 °F 38.5 °F 28.4 °F 50% 30.04 in 10.0 mi SW 21.9 mph 29.9 mph N/A   Partly Cloudy
1:35 PM 46.4 °F 38.7 °F 30.2 °F 53% 30.03 in 10.0 mi SW 20.7 mph - N/A   Partly Cloudy
1:55 PM 48.2 °F - 28.4 °F 46% 30.02 in 10.0 mi WSW 23.0 mph 31.1 mph N/A   Clear
2:15 PM 48.2 °F - 30.2 °F 50% 30.02 in 10.0 mi WSW 21.9 mph 29.9 mph N/A   Clear
2:35 PM 48.2 °F - 28.4 °F 46% 30.01 in 10.0 mi SW 24.2 mph 29.9 mph N/A   Clear
2:55 PM 48.2 °F - 28.4 °F 46% 30.01 in 10.0 mi WSW 25.3 mph 33.4 mph N/A   Clear
3:15 PM 48.2 °F - 28.4 °F 46% 30.00 in 10.0 mi WSW 24.2 mph - N/A   Clear
3:35 PM 50.0 °F - 32.0 °F 50% 29.99 in 10.0 mi SW 26.5 mph 32.2 mph N/A   Clear
3:55 PM 50.0 °F - 33.8 °F 54% 29.98 in 10.0 mi SW 23.0 mph 32.2 mph N/A   Mostly Cloudy
4:15 PM 51.8 °F - 32.0 °F 47% 29.96 in 10.0 mi WSW 26.5 mph - N/A   Scattered Clouds
4:35 PM 51.8 °F - 32.0 °F 47% 29.95 in 10.0 mi SW 23.0 mph 33.4 mph N/A   Mostly Cloudy
4:55 PM 51.8 °F - 32.0 °F 47% 29.95 in 10.0 mi WSW 21.9 mph 31.1 mph N/A   Overcast
5:15 PM 53.6 °F - 32.0 °F 44% 29.94 in 10.0 mi WSW 23.0 mph 31.1 mph N/A   Mostly Cloudy
5:35 PM 51.8 °F - 32.0 °F 47% 29.94 in 10.0 mi WSW 21.9 mph 32.2 mph N/A   Scattered Clouds
5:55 PM 48.2 °F - 35.6 °F 62% 29.97 in 9.0 mi WNW 34.5 mph 54.1 mph N/A   Mostly Cloudy
6:15 PM 42.8 °F 32.9 °F 39.2 °F 87% 29.99 in 4.0 mi West 26.5 mph 32.2 mph N/A Rain Light Rain
6:35 PM 42.8 °F 34.3 °F 39.2 °F 87% 29.98 in 10.0 mi WSW 19.6 mph 27.6 mph N/A   Overcast
6:55 PM 44.6 °F 36.1 °F 41.0 °F 87% 29.99 in 10.0 mi WSW 21.9 mph 28.8 mph 0.01 in   Scattered Clouds
7:15 PM 42.8 °F 34.8 °F 41.0 °F 93% 29.99 in 10.0 mi West 17.3 mph 24.2 mph N/A   Partly Cloudy
7:35 PM 42.8 °F 35.1 °F 39.2 °F 87% 29.99 in 10.0 mi WNW 16.1 mph - N/A   Mostly Cloudy
7:55 PM 42.8 °F 34.0 °F 35.6 °F 76% 30.01 in 10.0 mi WNW 20.7 mph 28.8 mph N/A   Scattered Clouds
8:15 PM 41.0 °F 33.5 °F 35.6 °F 81% 30.01 in 10.0 mi WNW 13.8 mph 23.0 mph N/A   Clear
8:35 PM 39.2 °F 31.2 °F 35.6 °F 87% 30.02 in 10.0 mi WNW 13.8 mph - N/A   Scattered Clouds
8:55 PM 39.2 °F 32.5 °F 35.6 °F 87% 30.03 in 10.0 mi West 10.4 mph - N/A   Overcast
10:15 PM 37.4 °F 28.2 °F 35.6 °F 93% 30.06 in 10.0 mi West 16.1 mph - N/A   Overcast
10:35 PM 37.4 °F 28.5 °F 33.8 °F 87% 30.06 in 10.0 mi West 15.0 mph - N/A   Scattered Clouds
10:55 PM 35.6 °F 25.9 °F 33.8 °F 93% 30.08 in 10.0 mi West 16.1 mph - N/A   Partly Cloudy
11:15 PM 35.6 °F 27.1 °F 33.8 °F 93% 30.08 in 10.0 mi WNW 12.7 mph 18.4 mph N/A   Clear
11:35 PM 35.6 °F 26.2 °F 30.2 °F 81% 30.08 in 10.0 mi NW 15.0 mph - N/A   Clear
11:55 PM 33.8 °F 25.3 °F 30.2 °F 87% 30.09 in 10.0 mi WNW 11.5 mph 18.4 mph N/A   Clear